HST,Max TemperatureF,Mean TemperatureF,Min TemperatureF,Max Dew PointF,MeanDew PointF,Min DewpointF,Max Humidity, Mean Humidity, Min Humidity, Max Sea Level PressureIn, Mean Sea Level PressureIn, Min Sea Level PressureIn, Max VisibilityMiles, Mean VisibilityMiles, Min VisibilityMiles, Max Wind SpeedMPH, Mean Wind SpeedMPH, Max Gust SpeedMPH,PrecipitationIn, CloudCover, Events, WindDirDegrees
2013-2-1,78,70,63,65,59,57,87,69,48,30.13,30.09,30.05,10,10,10,9,3,,0.00,0,,25
2013-2-2,81,72,64,66,61,56,93,66,50,30.16,30.12,30.07,10,10,10,13,5,,0.00,0,,59
2013-2-3,79,72,64,68,63,59,90,76,54,30.18,30.14,30.08,10,10,10,8,4,,0.00,4,,70
2013-2-4,79,72,64,65,60,56,90,69,47,30.17,30.12,30.05,10,10,10,8,4,,0.00,1,,17
2013-2-5,73,68,64,72,64,60,100,81,68,30.13,30.09,30.05,10,10,6,7,3,,0.00,5,Rain,92
2013-2-6,79,70,62,68,61,57,93,73,52,30.11,30.08,30.04,10,10,10,7,3,,0.00,0,,25
2013-2-7,79,72,66,71,66,60,90,79,64,30.14,30.09,30.05,10,10,10,8,4,,0.00,1,,27
2013-2-8,80,73,66,73,67,61,90,82,69,30.14,30.10,30.07,10,10,10,12,4,,0.00,2,,17
2013-2-9,79,72,66,67,63,59,94,73,52,30.16,30.11,30.06,10,10,10,9,4,,0.00,3,,46
2013-2-10,80,72,63,69,61,53,90,65,47,30.22,30.17,30.11,10,10,9,12,4,,0.00,2,,325
2013-2-11,79,72,66,68,63,56,93,73,54,30.24,30.19,30.13,10,10,10,8,3,,0.00,2,,16
2013-2-12,78,70,63,65,58,53,81,65,50,30.22,30.16,30.11,10,10,10,12,5,,0.00,2,,134
2013-2-13,78,70,63,64,58,54,87,65,46,30.15,30.11,30.04,10,10,10,13,5,,0.00,3,,26
2013-2-14,77,70,63,66,60,52,87,70,48,30.12,30.07,30.01,10,10,10,13,4,,0.00,3,,218
2013-2-15,78,70,62,67,61,56,87,72,56,30.13,30.07,30.02,10,10,10,8,3,,0.00,3,Rain,307
2013-2-16,81,72,64,65,58,47,87,59,37,30.15,30.11,30.05,10,10,10,14,4,21,0.00,2,,142
2013-2-17,82,74,66,62,56,51,70,53,38,30.18,30.14,30.09,10,10,10,15,6,22,0.00,2,,114
2013-2-18,84,76,66,60,53,49,73,47,31,30.17,30.14,30.08,10,10,10,10,4,25,0.00,1,,81
2013-2-19,82,73,64,61,56,51,76,56,38,30.18,30.13,30.06,10,10,10,15,4,29,0.00,4,,47
2013-2-20,82,74,66,64,58,52,87,61,37,30.18,30.14,30.09,10,10,10,12,4,18,0.00,2,,251
2013-2-21,75,70,64,71,62,51,93,76,51,30.18,30.15,30.11,10,10,10,8,3,,0.03,3,Rain,122
2013-2-22,79,72,64,69,64,61,90,75,54,30.17,30.12,30.06,10,10,10,12,3,,0.02,2,Rain,310
2013-2-23,79,72,66,67,63,61,87,72,54,30.15,30.11,30.06,10,10,10,9,5,,0.03,2,Rain,336
2013-2-24,81,72,64,63,58,53,84,62,42,30.15,30.10,30.04,10,10,10,12,4,,0.00,1,,289
2013-2-25,81,72,64,63,58,50,81,61,34,30.17,30.12,30.07,10,10,10,14,4,20,0.00,1,,57
2013-2-26,81,72,64,61,58,52,84,61,47,30.18,30.15,30.10,10,10,10,13,4,,0.00,1,,318
2013-2-27,80,72,64,63,57,51,81,60,43,30.20,30.16,30.12,10,10,10,14,5,,0.00,0,,347
2013-2-28,81,72,64,59,55,51,65,55,42,30.23,30.17,30.13,10,10,10,13,5,,0.00,2,,325